www.pogodaiklimat.ru

Погода и климат >> Архив погоды >> Мьянма >> Ньянг-У


ПОГОДА в Ньянг-У

  • Прогноз погоды в Ньянг-У
  • Монитор погоды в Ньянг-У

АРХИВ ПОГОДЫ в Ньянг-У

Время (UTC), дата Ветер
(напр.,м/с)
 
Видим.   Явления Облачность Т
(С)
Тd
(С)
f
(%)
Тe
(С)
Тes
(С)
Комфортность P
(гПа)
Po
(гПа)
Тmin
(С)
Tmax
(С)
R
(мм)
R24
(мм)
S
(см)
00 19.05 ЮЗ 1 5000 м ясно +28.0 +23.3 76 +38 +39 очень
душно
1005.0 998.7 +27.5
03 19.05 ЮЗ 1 8000 м ясно +35.5 +21.4 44 +43 +60 опасность
перегрева
1007.1 1001.0
06 19.05 ЮЗ 1 12 км 1/1 600 м
[Sc]
+40.5 +21.4 34 +48 +71 опасность
перегрева
1006.2 1000.2
09 19.05 СВ 1 14 км ясно +43.6 +21.4 29 +51 +63 опасность
перегрева
1003.0 997.1
12 19.05 СВ 1 6000 м ясно +40.0 +21.4 34 +47 +47 опасность
перегрева
1001.9 995.9 +44.1
00 20.05 ЮЗ 1 5000 м 5/4 600 м
[Cu Sc Ac und]
+32.5 +23.6 60 +44 +44 опасность
перегрева
1005.4 999.2 +32.0
03 20.05 ЮЗ 1 8000 м 4/4 600 м
[Cu Sc]
+35.6 +23.5 50 +46 +56 опасность
перегрева
1007.2 1001.1
06 20.05 СЗ 1 12 км 5/4 600 м
[Cu Sc Ac und]
+39.5 +23.0 39 +49 +62 опасность
перегрева
1006.4 1000.4
09 20.05 СЗ 1 14 км 3/3 600 м
[Cu Sc]
+43.5 +21.4 29 +50 +59 опасность
перегрева
1002.8 996.9
12 20.05 Ю 1 5000 м гроза без осадков {морось} 9/6 600 м
[Cb cap Ac und]
+33.6 +24.0 57 +45 +45 опасность
перегрева
1001.0 994.9 +44.0 0.0
00 21.05 ЮЗ 1 5000 м 3/3 600 м
[Sc]
+30.0 +23.9 70 +41 +42 опасность
перегрева
1005.1 998.9 +29.5
03 21.05 ЮЗ 1 8000 м ясно +34.5 +24.0 54 +46 +62 опасность
перегрева
1007.2 1001.1
06 21.05 СВ 1 12 км 3/3 600 м
[Cu Sc]
+39.3 +23.3 40 +49 +67 опасность
перегрева
1006.0 1000.0
09 21.05 СЗ 1 14 км 3/3 600 м
[Cu Sc]
+42.3 +22.6 33 +51 +59 опасность
перегрева
1001.9 995.9
12 21.05 СВ 1 6000 м 4/4 600 м
[Cu Sc]
+39.8 +23.0 38 +49 +49 опасность
перегрева
1000.6 994.6 +42.8
00 22.05 ЮЗ 1 5000 м гроза без осадков 5/4 600 м
[Cu Sc Ac und]
+30.5 +23.9 68 +42 +43 опасность
перегрева
1005.6 999.4 +30.0
03 22.05 ЮЗ 1 8000 м 1/1 600 м
[Sc]
+34.5 +24.0 54 +46 +61 опасность
перегрева
1006.5 1000.4
06 22.05 З 1 12 км 1/1 600 м
[Sc]
+38.8 +23.3 41 +48 +72 опасность
перегрева
1005.7 999.7
09 22.05 С 1 14 км 4/4 600 м
[Cu Sc]
+42.6 +21.7 31 +50 +57 опасность
перегрева
1001.7 995.8
12 22.05 Ю 2 5000 м слаб. морось {гроза} 9/6 600 м
[Cb cap Ac und]
+29.8 +23.9 71 +41 +41 опасность
перегрева
1002.5 996.3 +43.1 2
00 23.05 ЮЗ 1 5000 м 5/4 600 м
[Cu Sc Ac und]
+27.6 +23.3 77 +37 +38 очень
душно
1006.3 1000.0 +27.1 2
06 23.05 СЗ 1 12 км 4/4 600 м
[Cu Sc]
+38.5 +20.3 35 +44 +60 опасность
перегрева
1006.4 1000.3
09 23.05 С 1 14 км 5/5 600 м
[Cu Sc]
+42.2 +22.6 33 +50 +57 опасность
перегрева
1002.3 996.3
12 23.05 Ю 1 6000 м 5/5 600 м
[Cu Sc]
+39.0 +21.3 36 +46 +46 опасность
перегрева
1000.8 994.8 +42.7
00 24.05 Ю 1 5000 м в посл. час гроза {дождь} 3/3 600 м
[Cu Sc]
+28.0 +23.3 76 +38 +39 очень
душно
1005.5 999.2 +27.5 8
03 24.05 ЮЗ 3 8000 м ясно +32.0 +23.6 61 +43 +55 опасность
перегрева
1007.3 1001.1
06 24.05 ЮЗ 2 10 км 3/3 600 м
[Cu Sc]
+37.8 +24.0 45 +49 +64 опасность
перегрева
1005.9 999.8
09 24.05 С 1 8000 м в посл. час морось {гроза} 8/6 600 м
[Cb cap Ac und]
+27.6 +25.0 86 +40 +43 очень
душно
1004.6 998.3
12 24.05 СВ 1 5000 м 5/4 600 м
[Cu Sc Ac und]
+31.3 +22.5 60 +41 +41 опасность
перегрева
1003.6 997.4 +38.5 10
00 25.05 Ю 1 5000 м в посл. час гроза {морось} 9/6 600 м
[Cb cap Ac As]
+28.5 +20.3 61 +35 +35 очень
душно
1002.3 996.1 +28.0 10
03 25.05 ЮЗ 1 8000 м 5/4 600 м
[Cu Sc Ac und]
+32.0 +23.6 61 +43 +52 опасность
перегрева
1004.8 998.6
06 25.05 ЮЗ 1 10 км 4/4 600 м
[Cu Sc]
+36.8 +22.7 44 +46 +61 опасность
перегрева
1003.6 997.5
09 25.05 ЮЗ 1 10 км 6/5 600 м
[Cb cap Ac und]
+38.2 +24.0 44 +49 +54 опасность
перегрева
1000.4 994.4
12 25.05 ЮЗ 1 6000 м 5/5 600 м
[Cu Sc]
+35.7 +21.4 44 +44 +44 опасность
перегрева
999.8 993.7 +38.7

 

Местоположение метеостанции Ньянг-У (Мьянма): широта 21.20 долгота 94.92 высота над уровнем моря 55 м.

В архиве по умолчанию представлена погода в Ньянг-У за последнюю неделю. Архивные данные за месяц целиком и за предыдущие месяцы, начиная с января 2011 года, Вы можете получить, выбрав интересующий диапазон дат из раскрывающегося списка и нажав кнопку "Ввод!".


*Определитесь, кто Вы:
робот инопланетянин человек

Внимание! Время в таблицах - всемирное. Для получения местного времени необходимо прибавить поправку, которая равна 6.5 ч.

Смотрите также архив погоды в соседних городах и на ближайших метеорологических станциях:

Погода в Чау (Мьянма) (37 км)
Погода в Моунъюа (Мьянма) (102 км)
Погода в Миндате (Мьянма) (103 км)
Погода в Мейтхиле (Мьянма) (103 км)
Погода в Минбу (Мьянма) (115 км)
Погода в Магуэе (Мьянма) (117 км)
Погода в Сикайне (Мьянма) (132 км)
Погода в Мандалае (Мьянма) (150 км)
Погода в Шуэбо (Мьянма) (174 км)
Погода в Мемьо (Мьянма) (184 км)

Пояснения к столбцам:

Ветер - указаны скорость ветра в м/с - средняя за 10 мин, порывы в срок и между сроками (в фигурных скобках) и направление, откуда дует ветер: С - северный, СВ - северо-восточный, В - восточный, ЮВ - юго-восточный, Ю - южный, ЮЗ - юго-западный, З - западный, СЗ - северо-западный.
Видимость - горизонтальная дальность видимости в метрах или километрах. При видимости от 1 до 10 км при отсутствии осадков обычно наблюдается дымка, при ухудшении видимости до 1 км и менее - туман. В сухую погоду видимость может ухудшаться дымом, пылью или мглою.
Явления - указаны атмосферные явления, наблюдавшиеся в срок или в последний час перед сроком; фигурными скобками обозначены явления, наблюдавшиеся между сроками (за 1-3 часа до срока); квадратными скобками обозначены град или гололедные отложения с указанием их диаметра в мм.
Облачность - указаны через наклонную черту общая и нижняя облачность в баллах и высота нижней границы облаков в метрах; квадратными скобками обозначены формы облаков: Ci - перистые, Cs - перисто-слоистые, Cc - перисто-кучевые, Ac - высококучевые, As - высокослоистые, Sc - слоисто-кучевые, Ns - слоисто-дождевые, Cu - кучевые, Cb - кучево-дождевые. Подробнее классификацию облаков см. в Атласе облаков (PDF).
T - Температура воздуха - температура, измеренная на высоте 2 м над землей.
Td - Температура точки росы - температура, при понижении до которой содержащийся в воздухе водяной пар достигнет насыщения.
f - Относительная влажность воздуха - влажноcть воздуха, измеренная на высоте 2 м над землей.
Te - Эффективная температура - температура, которую ощущает одетый по сезону человек в тени. Характеристика душности погоды. При расчете учитывается влияние влажности воздуха и скорости ветра на теплоощущения человека.
Tes - Эффективная температура на солнце - температура, которую ощущает человек, с поправкой на солнечный нагрев. Характеристика знойности погоды. Зависит от высоты солнца над горизонтом, облачности и скорости ветра. Ночью, в пасмурную погоду, а также при ветре 12 м/с и более поправка равна нулю.
P - Атмосферное давление - приведенное к уровню моря атмосферное давление.
Po - Атмосферное давление - измеренное на уровне метеостанции атмосферное давление.
Tmin - Минимальная температура - минимум температуры воздуха на высоте 2 м над землей.
Tmax - Максимальная температура - максимум температуры воздуха на высоте 2 м над землей.
R - Количество осадков - Количество выпавших осадков за период времени, мм. При наведении курсора мыши на число - период времени, за который выпало указанное количество осадков.
R24 - Количество осадков - Количество выпавших осадков за 24 часа, мм.
S - Снежный покров - Высота снежного покрова, см. При наведении курсора мыши на число - состояние снежного покрова и степень покрытия местности в баллах.